Weather History for Nuiqsut, AK

Change the Weather History Date:

Sunday, March 10, 2013

  Actual Average (PAKU) Record (PAKU)
Temperature  
Mean Temperature -3 °F -  
Max Temperature 1 °F -7 °F 38 °F (1989)
Min Temperature -7 °F -17 °F -45 °F (1999)
Degree Days  
Heating Degree Days 68    
Moisture  
Dew Point -5 °F    
Average Humidity 90    
Maximum Humidity 100    
Minimum Humidity 83    
Precipitation  
Precipitation 0.00 in - - ()
Sea Level Pressure  
Sea Level Pressure 30.40 in    
Wind  
Wind Speed 8 mph (ENE)    
Max Wind Speed 14 mph    
Max Gust Speed -    
Visibility 5 miles    
Events Fog , Snow    
Averages and records for this station are not official NWS values.
T = Trace of Precipitation, MM = Missing Value Source: NWS Daily Summary

Daily Weather History Graph

Daily Weather History Graph

Search for Another Location

Airport:

Trip Planner

Search our weather history database for the weather conditions in past years. The results will help you decide how hot, cold, wet, or windy it might be!

Date:

Astronomy

Mar. 10, 2013 Rise Set
Actual Time 8:47 AM AKDT 7:42 PM AKDT
Civil Twilight 7:46 AM AKDT 8:44 PM AKDT
Nautical Twilight 6:33 AM AKDT 9:58 PM AKDT
Astronomical Twilight 5:08 AM AKDT 11:24 PM AKDT
Moon 8:08 AM AKDT (3/10) 7:01 PM AKDT (3/10)
Length of Visible Light 12h 58m
Length of Day
10h 55m
Waning Crescent, 1% of the Moon is Illuminated
Mar 10
Waning Crescent
Mar 11
New
Mar 19
First Quarter
Mar 27
Full
Apr 2
Last Quarter

Hourly Weather History & Observations

Time (AKDT) Temp. Windchill Dew Point Humidity Pressure Visibility Wind Dir Wind Speed Gust Speed Precip Events Conditions
12:53 AM 1.9 °F -16.2 °F -0.9 °F 88% 30.02 in 8.0 mi ENE 13.8 mph - 0.00 in Snow Light Snow
1:35 AM 1.4 °F -15.3 °F -2.2 °F 85% 30.04 in 8.0 mi ENE 11.5 mph - 0.00 in Snow Light Snow
1:53 AM 1.0 °F -14.9 °F -2.0 °F 87% 30.05 in 9.0 mi ENE 10.4 mph - 0.00 in   Overcast
3:34 AM 1.4 °F -16.1 °F -2.2 °F 85% 30.06 in 9.0 mi ENE 12.7 mph - 0.00 in   Overcast
4:53 AM -0.0 °F -17.1 °F -2.9 °F 88% 30.11 in 7.0 mi ENE 11.5 mph - 0.00 in   Overcast
5:53 AM -0.0 °F -18.0 °F -2.9 °F 88% 30.13 in 10.0 mi ENE 12.7 mph - 0.00 in   Overcast
6:53 AM -0.9 °F -18.3 °F -4.0 °F 87% 30.15 in 7.0 mi ENE 11.5 mph - 0.00 in   Overcast
7:53 AM -0.9 °F -16.4 °F -4.0 °F 87% 30.17 in 10.0 mi ENE 9.2 mph - 0.00 in   Overcast
8:53 AM -0.0 °F -14.2 °F -2.9 °F 88% 30.19 in 10.0 mi ENE 8.1 mph - 0.00 in   Overcast
9:53 AM -0.0 °F -14.2 °F -2.9 °F 88% 30.22 in 10.0 mi ENE 8.1 mph - 0.00 in   Overcast
10:53 AM -0.9 °F -17.4 °F -2.9 °F 91% 30.24 in 10.0 mi ENE 10.4 mph - 0.00 in   Overcast
11:53 AM -0.0 °F -15.3 °F -2.9 °F 88% 30.27 in 10.0 mi ENE 9.2 mph - 0.00 in   Overcast
12:53 PM -0.0 °F -14.2 °F -2.0 °F 91% 30.29 in 10.0 mi ENE 8.1 mph - 0.00 in   Overcast
1:48 PM -0.4 °F -14.7 °F -2.2 °F 92% 30.32 in 10.0 mi NE 8.1 mph - 0.00 in   Overcast
1:53 PM -0.0 °F -13.0 °F -2.9 °F 88% 30.33 in 10.0 mi NE 6.9 mph - 0.00 in   Overcast
2:53 PM 1.0 °F -10.3 °F -2.0 °F 87% 30.36 in 10.0 mi ENE 5.8 mph - 0.00 in   Overcast
3:53 PM -0.0 °F -11.6 °F -2.9 °F 88% 30.39 in 9.0 mi NE 5.8 mph - 0.00 in   Overcast
4:53 PM -0.0 °F -9.9 °F -2.9 °F 88% 30.41 in 7.0 mi NE 4.6 mph - 0.00 in Snow Light Snow
5:33 PM -0.4 °F -10.4 °F -2.2 °F 92% 30.42 in 4.0 mi NE 4.6 mph - 0.00 in   Overcast
5:39 PM -0.4 °F -12.0 °F -4.0 °F 85% 30.43 in 2.0 mi NE 5.8 mph - 0.00 in Snow Light Snow
5:41 PM -0.4 °F -12.0 °F -4.0 °F 85% 30.43 in 1.8 mi NE 5.8 mph - 0.00 in Snow Light Snow
5:53 PM -0.0 °F -9.9 °F -4.0 °F 83% 30.44 in 2.0 mi NNE 4.6 mph - 0.00 in Snow Light Snow
6:10 PM -0.4 °F -10.4 °F -4.0 °F 85% 30.44 in 6.0 mi NNE 4.6 mph - 0.00 in   Overcast
6:53 PM -2.0 °F -10.1 °F -5.1 °F 87% 30.46 in 2.5 mi NNE 3.5 mph - 0.00 in Snow Light Snow
7:02 PM -2.2 °F -12.5 °F -5.8 °F 85% 30.46 in 4.0 mi NNE 4.6 mph - 0.00 in   Overcast
7:33 PM -2.2 °F -12.5 °F -5.8 °F 85% 30.47 in 2.0 mi NNE 4.6 mph - 0.00 in Snow Light Snow
7:40 PM -2.2 °F -14.2 °F -5.8 °F 85% 30.48 in 1.5 mi NE 5.8 mph - 0.00 in Snow Light Snow
7:53 PM -2.9 °F -15.0 °F -6.0 °F 87% 30.48 in 1.5 mi NE 5.8 mph - 0.00 in Snow Light Snow
8:17 PM -2.2 °F -12.5 °F -5.8 °F 85% 30.49 in 2.0 mi NE 4.6 mph - 0.00 in Snow Light Snow
8:30 PM -5.8 °F -14.5 °F -7.6 °F 92% 30.50 in 3.0 mi NE 3.5 mph - 0.00 in   Overcast
8:53 PM -5.1 °F -17.6 °F -7.1 °F 91% 30.51 in 6.0 mi ENE 5.8 mph - 0.00 in   Overcast
9:40 PM -5.8 °F -16.7 °F -7.6 °F 92% 30.53 in 2.5 mi East 4.6 mph - 0.00 in   Overcast
9:48 PM -5.8 °F -14.5 °F -7.6 °F 92% 30.54 in 1.5 mi East 3.5 mph - 0.00 in   Overcast
9:53 PM -7.1 °F -15.9 °F -7.1 °F 100% 30.55 in 1.2 mi ENE 3.5 mph - 0.00 in   Overcast
10:23 PM -5.8 °F -14.5 °F -7.6 °F 92% 30.55 in 1.8 mi NE 3.5 mph - N/A   Overcast
10:36 PM -5.8 °F - -7.6 °F 92% 30.56 in 0.5 mi Calm Calm - 0.00 in Fog Light Freezing Fog
10:49 PM -5.8 °F - -5.8 °F 100% 30.57 in 0.5 mi Calm Calm - 0.00 in Fog , Snow Light Snow
10:53 PM -6.0 °F - -6.0 °F 100% 30.58 in 0.5 mi Calm Calm - 0.00 in Fog , Snow Light Snow
11:16 PM -7.6 °F -16.5 °F -7.6 °F 100% 30.58 in 1.2 mi SSE 3.5 mph - 0.00 in   Overcast
11:27 PM -7.6 °F -16.5 °F -7.6 °F 100% 30.59 in 2.5 mi SSE 3.5 mph - 0.00 in   Overcast
11:42 PM -5.8 °F -14.5 °F -7.6 °F 92% 30.60 in 3.0 mi SE 3.5 mph - 0.00 in   Overcast
11:53 PM -5.1 °F - -6.0 °F 96% 30.61 in 3.0 mi Calm Calm - 0.00 in   Overcast
12:00 AM -5.8 °F -14.5 °F -7.6 °F 92% 30.60 in 2.0 mi SE 3.5 mph - 0.00 in Snow Light Snow
12:34 AM -5.8 °F -16.7 °F -7.6 °F 92% 30.61 in 4.0 mi SSE 4.6 mph - 0.00 in   Overcast
12:53 AM -6.0 °F -14.7 °F -8.0 °F 91% 30.63 in 5.0 mi South 3.5 mph - 0.00 in   Overcast